Location: Elkol
(41.7238°N, 110.6124°W)
Time: 06:50:46
(UTC+00:00)

Envisat - Pass Details

Date: 23 January 2022
Orbit: 764 x 765 km, 98.2° (Epoch: 21 May)

Event Time Altitude Azimuth Distance (km) Brightness Sun altitude
Rises 11:11:22 0° 28° (NNE) 3,238 6.6 -39.2°
Reaches altitude 10° 11:14:15 10° 44° (NE) 2,307 6.0 -38.7°
Maximum altitude 11:18:01 21° 92° (E) 1,683 5.3 -38.0°
Drops below altitude 10° 11:21:45 10° 141° (SE) 2,295 5.8 -37.3°
Sets 11:24:36 0° 157° (SSE) 3,216 6.4 -36.8°
